Date String (YYYY-MM-DD hh:mm:ss) UTC,Instrument flags,absolute air pressure of the measurement (hPa),sample flow rate (lpm),inlet stack bypass flow (lpm),air temperature of the measurement (°C),ambient temperature measured by the external sensor (°C),aerosol sample conditioner tube jacket temperature (°C),OPC LED temperature (°C),internal box temperature (°C),relative humidity of the measurement (%),span deviation,mass concentration of particles derived from Lorenz-Mie calculation of OPC scattering (μg/m³),mass concentration of particles derived from Lorenz-Mie calculation of OPC scattering (μg/m³),mass concentration of particles derived from Lorenz-Mie calculation of OPC scattering (μg/m³)
DateTimeUTC,F1_M11,P_M11,Q1_M11,Q2_M11,T1_M11,T2_M11,T3_M11,T4_M11,T5_M11,U1_M11,ZSPAN_M11,X0_M11,X2_M11,X1_M11
2023-06-12 04:00:00,SystemResetWarning,0832.1,5.00,000.00,030.2,028.6,000.0,038.7,031.7,30.8,0001.3,0010.71,0006.36,0005.74
2023-06-12 04:01:00,SystemResetWarning,0832.1,5.01,000.00,030.2,028.6,000.0,038.7,031.6,30.7,0001.4,0010.69,0006.37,0005.75
2023-06-12 04:02:00,SystemResetWarning,0832.2,5.01,000.00,030.2,028.6,000.0,038.7,031.6,30.6,0001.2,0010.69,0006.36,0005.76
2023-06-12 04:03:00,SystemResetWarning,0832.3,5.01,000.00,030.2,028.6,000.0,038.7,031.7,30.6,0001.2,0010.67,0006.36,0005.78
2023-06-12 04:04:00,SystemResetWarning,0832.3,5.00,000.00,030.2,028.6,000.0,038.7,031.7,30.7,0001.1,0010.70,0006.37,0005.79
2023-06-12 04:05:00,SystemResetWarning,0832.4,5.00,000.00,030.2,028.6,000.0,038.7,031.7,30.6,0001.3,0010.71,0006.40,0005.81
2023-06-12 04:06:00,SystemResetWarning,0832.4,4.99,000.00,030.2,028.6,000.0,038.7,031.7,30.6,0001.2,0010.69,0006.41,0005.83
2023-06-12 04:07:00,SystemResetWarning,0832.4,5.00,000.00,030.2,028.6,000.0,038.7,031.7,30.4,0001.4,0010.46,0006.36,0005.83
2023-06-12 04:08:00,SystemResetWarning,0832.5,5.00,000.00,030.2,028.6,000.0,038.7,031.7,30.3,0001.4,0010.33,0006.33,0005.83
2023-06-12 04:09:00,SystemResetWarning,0832.5,5.00,000.00,030.2,028.6,000.0,038.7,031.7,30.2,0001.4,0010.28,0006.31,0005.85
2023-06-12 04:10:00,SystemResetWarning,0832.5,5.01,000.00,030.2,028.6,000.0,038.7,031.7,30.2,0001.3,0010.04,0006.34,0005.87
2023-06-12 04:11:00,SystemResetWarning,0832.5,5.00,000.00,030.2,028.6,000.0,038.7,031.7,30.1,0001.0,0010.07,0006.39,0005.91
2023-06-12 04:12:00,SystemResetWarning,0832.5,5.01,000.00,030.2,028.6,000.0,038.7,031.7,30.1,0000.8,0010.12,0006.40,0005.93
2023-06-12 04:13:00,SystemResetWarning,0832.5,5.00,000.00,030.2,028.6,000.0,038.7,031.7,30.1,0000.7,0010.07,0006.41,0005.95
2023-06-12 04:14:00,SystemResetWarning,0832.5,5.01,000.00,030.2,028.6,000.0,038.8,031.7,30.1,0000.6,0010.07,0006.42,0005.95
2023-06-12 04:15:00,SystemResetWarning,0832.5,5.00,000.00,030.2,028.6,000.0,038.8,031.7,30.2,0000.6,0010.08,0006.44,0005.96
2023-06-12 04:16:00,SystemResetWarning,0832.5,4.98,000.00,030.2,028.6,000.0,038.8,031.7,30.3,0000.6,0010.16,0006.44,0005.96
2023-06-12 04:17:00,SystemResetWarning,0832.5,5.00,000.00,030.2,028.6,000.0,038.8,031.7,30.3,0000.6,0010.21,0006.44,0005.96
2023-06-12 04:18:00,SystemResetWarning,0832.5,5.00,000.00,030.2,028.6,000.0,038.8,031.7,30.2,0000.9,0010.38,0006.48,0005.97
2023-06-12 04:19:00,SystemResetWarning,0832.5,5.00,000.00,030.2,028.6,000.0,038.8,031.7,30.1,0001.1,0010.83,0006.51,0005.98
2023-06-12 04:20:00,SystemResetWarning,0832.5,5.00,000.00,030.2,028.6,000.0,038.8,031.7,30.1,0001.1,0010.93,0006.55,0005.98
2023-06-12 04:21:00,SystemResetWarning,0832.5,5.00,000.00,030.2,028.6,000.0,038.8,031.7,30.0,0001.3,0010.86,0006.54,0005.98
2023-06-12 04:22:00,SystemResetWarning,0832.5,5.01,000.00,030.2,028.6,000.0,038.8,031.7,29.9,0001.4,0010.81,0006.53,0005.97
2023-06-12 04:23:00,SystemResetWarning,0832.5,5.00,000.00,030.2,028.6,000.0,038.8,031.7,29.8,0001.5,0010.90,0006.55,0005.98
2023-06-12 04:24:00,SystemResetWarning,0832.5,5.00,000.00,030.2,028.6,000.0,038.8,031.7,29.7,0001.7,0010.88,0006.53,0005.95
2023-06-12 04:25:00,SystemResetWarning,0832.6,5.00,000.00,030.2,028.6,000.0,038.8,031.7,29.8,0001.6,0010.82,0006.50,0005.93
2023-06-12 04:26:00,SystemResetWarning,0832.5,5.00,000.00,030.2,028.6,000.0,038.8,031.7,29.7,0001.7,0010.73,0006.47,0005.91
2023-06-12 04:27:00,SystemResetWarning,0832.5,4.99,000.00,030.2,028.6,000.0,038.8,031.7,29.7,0001.8,0010.62,0006.45,0005.91
2023-06-12 04:28:00,SystemResetWarning,0832.5,5.00,000.00,030.2,028.6,000.0,038.8,031.7,29.6,0001.8,0010.54,0006.44,0005.92
2023-06-12 04:29:00,SystemResetWarning,0832.5,5.01,000.00,030.2,028.6,000.0,038.8,031.7,29.6,0001.8,0010.43,0006.42,0005.92
2023-06-12 04:30:00,SystemResetWarning,0832.6,5.01,000.00,030.2,028.6,000.0,038.8,031.7,29.6,0001.8,0010.07,0006.44,0005.93
2023-06-12 04:31:00,SystemResetWarning,0832.5,4.99,000.00,030.2,028.6,000.0,038.8,031.7,29.6,0001.8,0010.08,0006.46,0005.95
2023-06-12 04:32:00,SystemResetWarning,0832.5,4.99,000.00,030.2,028.6,000.0,038.8,031.7,29.5,0001.8,0010.19,0006.48,0005.95
2023-06-12 04:33:00,SystemResetWarning,0832.5,4.99,000.00,030.2,028.6,000.0,038.8,031.7,29.5,0002.0,0010.41,0006.50,0005.98
2023-06-12 04:34:00,SystemResetWarning,0832.5,5.00,000.00,030.2,028.6,000.0,038.8,031.7,29.5,0002.1,0010.51,0006.51,0005.99
2023-06-12 04:35:00,SystemResetWarning,0832.4,5.00,000.00,030.2,028.6,000.0,038.8,031.7,29.5,0002.0,0010.57,0006.55,0006.00
2023-06-12 04:36:00,SystemResetWarning,0832.4,5.01,000.00,030.2,028.6,000.0,038.8,031.7,29.4,0002.0,0010.60,0006.56,0006.01
2023-06-12 04:37:00,SystemResetWarning,0832.3,5.01,000.00,030.2,028.6,000.0,038.8,031.7,29.4,0002.0,0011.17,0006.57,0006.02
2023-06-12 04:38:00,SystemResetWarning,0832.3,5.00,000.00,030.2,028.6,000.0,038.8,031.7,29.4,0002.1,0011.16,0006.56,0006.03
2023-06-12 04:39:00,SystemResetWarning,0832.3,5.00,000.00,030.2,028.6,000.0,038.8,031.7,29.5,0002.1,0011.33,0006.58,0006.03
2023-06-12 04:40:00,SystemResetWarning,0832.3,5.00,000.00,030.2,028.6,000.0,038.8,031.7,29.5,0002.1,0011.46,0006.59,0006.02
2023-06-12 04:41:00,SystemResetWarning,0832.3,5.00,000.00,030.2,028.6,000.0,038.8,031.7,29.5,0001.9,0011.45,0006.57,0006.01
2023-06-12 04:42:00,SystemResetWarning,0832.3,5.00,000.00,030.2,028.6,000.0,038.8,031.7,29.4,0001.9,0011.39,0006.53,0006.00
2023-06-12 04:43:00,SystemResetWarning,0832.3,5.00,000.00,030.2,028.6,000.0,038.8,031.7,29.4,0001.9,0011.33,0006.51,0005.98
2023-06-12 04:44:00,SystemResetWarning,0832.3,4.99,000.00,030.2,028.6,000.0,038.8,031.7,29.3,0001.8,0011.19,0006.49,0005.97
2023-06-12 04:45:00,SystemResetWarning,0832.3,5.00,000.00,030.2,028.6,000.0,038.8,031.7,29.3,0001.6,0010.98,0006.44,0005.95
2023-06-12 04:46:00,SystemResetWarning,0832.3,5.00,000.00,030.2,028.6,000.0,038.8,031.7,29.3,0001.6,0010.88,0006.39,0005.93
2023-06-12 04:47:00,SystemResetWarning,0832.3,5.00,000.00,030.2,028.6,000.0,038.8,031.7,29.3,0002.0,0011.01,0006.43,0005.92
2023-06-12 04:48:00,SystemResetWarning,0832.3,5.00,000.00,030.3,028.6,000.0,038.8,031.7,29.3,0002.0,0010.45,0006.41,0005.91
2023-06-12 04:49:00,SystemResetWarning,0832.3,5.01,000.00,030.3,028.6,000.0,038.8,031.7,29.3,0002.1,0010.51,0006.41,0005.87
2023-06-12 04:50:00,SystemResetWarning,0832.3,5.01,000.00,030.3,028.6,000.0,038.8,031.7,29.4,0002.2,0010.29,0006.37,0005.85
2023-06-12 04:51:00,SystemResetWarning,0832.4,5.00,000.00,030.3,028.6,000.0,038.8,031.7,29.5,0001.9,0010.56,0006.34,0005.82
2023-06-12 04:52:00,SystemResetWarning,0832.5,5.00,000.00,030.3,028.6,000.0,038.8,031.7,29.4,0002.0,0010.54,0006.30,0005.79
2023-06-12 04:53:00,SystemResetWarning,0832.5,5.00,000.00,030.3,028.7,000.0,038.8,031.7,29.3,0001.9,0010.72,0006.25,0005.75
2023-06-12 04:54:00,SystemResetWarning,0832.5,5.00,000.00,030.3,028.7,000.0,038.8,031.7,29.4,0001.7,0010.89,0006.21,0005.72
2023-06-12 04:55:00,SystemResetWarning,0832.5,4.99,000.00,030.3,028.7,000.0,038.8,031.7,29.5,0001.6,0010.76,0006.16,0005.68
2023-06-12 04:56:00,SystemResetWarning,0832.5,5.00,000.00,030.3,028.7,000.0,038.8,031.7,29.6,0002.0,0010.71,0006.15,0005.66
2023-06-12 04:57:00,SystemResetWarning,0832.5,5.00,000.00,030.2,028.7,000.0,038.8,031.7,29.6,0002.2,0010.79,0006.18,0005.65
2023-06-12 04:58:00,SystemResetWarning,0832.5,5.00,000.00,030.3,028.7,000.0,038.8,031.7,29.5,0002.2,0010.79,0006.14,0005.64
2023-06-12 04:59:00,SystemResetWarning,0832.5,5.00,000.00,030.3,028.7,000.0,038.8,031.7,29.5,0002.1,0010.96,0006.13,0005.61
